Location: Ottobeuren
(47.9410°N, 10.3007°E)
Time: 06:43:01
(UTC+01:00)

Envisat - Visible Passes

Search period start: 18 February 2019 00:00
Search period end: 28 February 2019 00:00
Orbit: 764 x 766 km, 98.2° (Epoch: 17 February)

Date Brightness Start Highest point End Pass type
(mag) Time Alt. Az. Time Alt. Az. Time Alt. Az.
18 Feb 6.2 06:32:02 10° NE 06:34:50 15° E 06:37:35 10° ESE visible
18 Feb 4.2 19:27:42 10° S 19:32:32 44° W 19:37:25 10° NNW visible
19 Feb 3.0 18:50:37 10° SSE 18:55:42 90° ENE 19:00:49 10° NNW visible
19 Feb 6.1 20:33:07 10° WSW 20:35:27 13° W 20:37:47 10° WNW visible
20 Feb 3.3 18:14:15 10° SE 18:19:03 45° ENE 18:23:53 10° N visible
20 Feb 5.1 19:53:59 10° SSW 19:58:15 27° W 20:02:33 10° NW visible
21 Feb 6.5 06:21:45 10° ENE 06:23:27 12° E 06:25:09 10° ESE visible
21 Feb 3.8 19:16:19 10° S 19:21:17 55° W 19:26:17 10° NNW visible
22 Feb 2.9 18:39:26 10° SSE 18:44:30 74° ENE 18:49:35 10° N visible
22 Feb 5.9 20:20:57 10° SW 20:24:05 16° W 20:27:15 10° NW visible
23 Feb 4.8 19:42:24 10° SSW 19:46:57 33° W 19:51:33 10° NNW visible
24 Feb 3.4 19:04:59 10° S 19:10:02 68° WSW 19:15:08 10° NNW visible
25 Feb 3.0 18:28:19 10° SSE 18:33:19 60° ENE 18:38:19 10° N visible
25 Feb 5.6 20:09:02 10° SW 20:12:44 20° W 20:16:28 10° NW visible
26 Feb 6.2 06:34:55 10° NE 06:38:00 16° E 06:41:04 10° SE visible
26 Feb 4.4 19:30:54 10° SSW 19:35:40 41° W 19:40:29 10° NNW visible
27 Feb 3.1 18:53:44 10° SSE 18:58:49 84° WSW 19:03:56 10° NNW visible
27 Feb 6.1 20:36:46 10° WSW 20:38:37 12° W 20:40:30 10° WNW visible
